Погода в Широково

Россия / Ивановская область     57°12′00″N   41°06′53″E
темп.,
°C
ветер,
м/с
пор.,
м/с
влажн.,
%
обл.,
%
осадки,
мм/ч
давл.,
гПа
погр.,
м
20 июня, вс
вс2000:00+18зюз36875 0.0 102275
03:00+16з33865 0.0 102344
06:00+19з24805 0.0 1022122
09:00+24зюз23613 0.0 1022443
12:00+28зюз34462 0.0 10221345
15:00+28з45480 0.0 10211413
18:00+27з25640 0.0 1019402
21:00+22юз33780 0.0 102042
21 июня, пн
пн2100:00+19зюз34810 0.0 102047
03:00+18юз34911 0.0 102153
06:00+21юз35855 0.0 1021150
09:00+26зюз23655 0.0 1021590
12:00+29зюз235122 0.0 10211598
15:00+30зсз3448100 0.0 10201986
18:00+28зсз2467100 0.0 1020263
21:00+22зюз3382100 0.1 102039
22 июня, вт
вт2200:00+20юз227825 0.0 102120
03:00+18юз228415 0.0 102112
06:00+21юз228035 0.0 102294
09:00+26юз236348 0.0 1022536
12:00+29ююз23454 0.0 10211616
15:00+30з23415 0.0 10212053
18:00+29сз23600 0.0 1020473
21:00+23зюз00770 0.0 102011
23 июня, ср
ср2300:00+21ююз11822 0.0 102112
03:00+19юз22861 0.0 102126
06:00+22зюз24815 0.0 1022136
09:00+27з23640 0.0 1022497
12:00+30сз22530 0.0 10221087
15:00+31ссз23495 0.0 10211363
18:00+30ссз236334 0.0 1021440
21:00+24зюз22776 0.0 102119
24 июня, чт
чт2400:00+22зюз22795 0.0 102117
03:00+20зюз238532 0.0 102135
06:00+23зюз257938 0.0 1021139
09:00+28з34605 0.0 1021496
12:00+31з34488 0.0 10201364
15:00+32зсз45457 0.0 10192112
18:00+30з245817 0.0 1018276
21:00+24юз336921 0.0 101731